Location: Feudal
(51.8839°N, 107.6105°W)
Time: 03:56:05
(UTC+00:00)

Envisat - Pass Details

Date: 21 January 2022
Orbit: 764 x 765 km, 98.2° (Epoch: 25 May)

Event Time Altitude Azimuth Distance (km) Brightness Sun altitude
Rises 12:21:47 0° 14° (NNE) 3,245 6.4 -24.7°
Reaches altitude 10° 12:24:05 10° 14° (NNE) 2,314 5.6 -24.3°
Maximum altitude 12:29:12 88° 288° (WNW) 773 2.9 -23.5°
Drops below altitude 10° 12:34:17 10° 198° (SSW) 2,298 5.3 -22.7°
Sets 12:36:34 0° 198° (SSW) 3,220 6.1 -22.4°
